This is the latest recevied weather packets stored in our database for station/object DH4SBM. If no packets are shown the sender has not sent any weather packets the latest 10 day(s).
| Time | Temp. | Humidity | Pressure | Rain* | Wind** | Luminosity | Snow |
|---|---|---|---|---|---|---|---|
| 1777572500 | 15.56° C | 28% | 1027.3 hPa | 0 mm | - | 44 W/m² | - |
| 1777571900 | 15.56° C | 28% | 1027.3 hPa | 0 mm | - | 58 W/m² | - |
| 1777571300 | 16.11° C | 27% | 1027.4 hPa | 0 mm | - | 74 W/m² | - |
| 1777570700 | 16.11° C | 27% | 1027.3 hPa | 0 mm | - | 91 W/m² | - |
| 1777570100 | 16.11° C | 26% | 1027.3 hPa | 0 mm | - | 111 W/m² | - |
| 1777569500 | 16.67° C | 27% | 1027.3 hPa | 0 mm | - | 132 W/m² | - |
| 1777568900 | 16.67° C | 27% | 1027.2 hPa | 0 mm | - | 155 W/m² | - |
| 1777568300 | 16.67° C | 26% | 1027.2 hPa | 0 mm | - | 181 W/m² | - |
| 1777567700 | 16.67° C | 24% | 1027.3 hPa | 0 mm | - | 206 W/m² | - |
| 1777567100 | 17.22° C | 24% | 1027.2 hPa | 0 mm | - | 234 W/m² | - |
| 1777566500 | 17.22° C | 22% | 1027.2 hPa | 0 mm | - | 260 W/m² | - |
| 1777565900 | 17.22° C | 21% | 1027.3 hPa | 0 mm | - | 290 W/m² | - |
| 1777565300 | 17.22° C | 21% | 1027.2 hPa | 0 mm | - | 316 W/m² | - |
| 1777564700 | 17.22° C | 22% | 1027.2 hPa | 0 mm | - | 346 W/m² | - |
| 1777564100 | 17.22° C | 22% | 1027.2 hPa | 0 mm | - | 369 W/m² | - |
| 1777563500 | 17.22° C | 21% | 1027.1 hPa | 0 mm | - | 396 W/m² | - |
| 1777562900 | 16.67° C | 22% | 1027.1 hPa | 0 mm | - | 424 W/m² | - |
| 1777562300 | 17.22° C | 22% | 1027.1 hPa | 0 mm | - | 450 W/m² | - |
| 1777561700 | 17.22° C | 23% | 1027.3 hPa | 0 mm | - | 473 W/m² | - |
| 1777561100 | 17.22° C | 23% | 1027.2 hPa | 0 mm | - | 501 W/m² | - |
| 1777560500 | 17.22° C | 24% | 1027.3 hPa | 0 mm | - | 524 W/m² | - |
| 1777559900 | 16.67° C | 24% | 1027.3 hPa | 0 mm | - | 550 W/m² | - |
| 1777559300 | 16.67° C | 24% | 1027.3 hPa | 0 mm | - | 575 W/m² | - |
| 1777558700 | 16.67° C | 23% | 1027.3 hPa | 0 mm | - | 598 W/m² | - |
| 1777557936 | 16.67° C | 24% | 1027.3 hPa | 0 mm | - | 621 W/m² | - |
* Rain latest hour (hover to see other rain measurements)
** Current wind speed in m/s (hover to see current wind gust speed)